Time,TemperatureF,DewpointF,PressureIn,WindDirection,WindDirectionDegrees,WindSpeedMPH,WindSpeedGustMPH,Humidity,HourlyPrecipIn,Conditions,Clouds,dailyrainin,SoftwareType,DateUTC
2013-03-28 03:15:00,44.8,44.2,-100.00,NE,45,2.0,-999.0,98,-99.99,,,0.21,meteohub,2013-03-28 01:15:00,
2013-03-28 03:21:00,44.8,44.2,-100.00,NE,45,2.0,5.0,98,0.33,,,0.33,meteohub,2013-03-28 01:21:00,
2013-03-28 03:27:00,44.8,44.2,-100.00,NE,45,4.0,5.0,98,0.33,,,0.33,meteohub,2013-03-28 01:27:00,
2013-03-28 03:33:00,44.8,44.2,-100.00,NE,45,3.0,8.0,98,0.33,,,0.33,meteohub,2013-03-28 01:33:00,
2013-03-28 03:39:00,44.8,44.2,-100.00,NE,45,1.0,8.0,98,0.33,,,0.33,meteohub,2013-03-28 01:39:00,
2013-03-28 03:47:00,44.8,44.2,-100.00,NE,45,3.0,8.0,98,0.33,,,0.33,meteohub,2013-03-28 01:47:00,
2013-03-28 03:53:00,44.8,44.2,-100.00,NE,45,4.0,8.0,98,0.33,,,0.33,meteohub,2013-03-28 01:53:00,
2013-03-28 03:58:00,44.8,44.2,-100.00,NE,45,3.0,8.0,98,0.33,,,0.33,meteohub,2013-03-28 01:58:00,
2013-03-28 04:03:00,44.8,44.2,-100.00,NE,45,4.0,6.0,98,0.33,,,0.33,meteohub,2013-03-28 02:03:00,
2013-03-28 04:09:00,44.8,44.2,-100.00,NE,45,3.0,7.0,98,0.33,,,0.33,meteohub,2013-03-28 02:09:00,
2013-03-28 04:14:00,44.8,44.2,-100.00,NE,45,2.0,7.0,98,0.33,,,0.33,meteohub,2013-03-28 02:14:00,
2013-03-28 04:21:00,44.8,44.2,-100.00,NE,45,5.0,5.0,98,0.00,,,0.33,meteohub,2013-03-28 02:21:00,
2013-03-28 04:26:00,44.8,44.2,-100.00,NE,45,1.0,5.0,98,0.00,,,0.33,meteohub,2013-03-28 02:26:00,
2013-03-28 04:32:00,44.8,44.2,-100.00,NE,45,2.0,5.0,98,0.00,,,0.33,meteohub,2013-03-28 02:32:00,
2013-03-28 04:38:00,44.8,44.2,-100.00,NE,45,2.0,6.0,98,0.00,,,0.33,meteohub,2013-03-28 02:38:00,
2013-03-28 04:46:00,44.8,44.2,-100.00,NE,45,3.0,6.0,98,0.00,,,0.33,meteohub,2013-03-28 02:46:00,
2013-03-28 04:51:00,44.8,44.2,-100.00,NE,45,4.0,6.0,98,0.00,,,0.33,meteohub,2013-03-28 02:51:00,
2013-03-28 04:57:00,44.8,44.2,-100.00,NE,45,3.0,6.0,98,0.00,,,0.33,meteohub,2013-03-28 02:57:00,
2013-03-28 05:02:00,44.8,44.2,-100.00,NE,45,1.0,6.0,98,0.00,,,0.33,meteohub,2013-03-28 03:02:00,
2013-03-28 05:07:00,44.8,44.2,-100.00,NE,45,4.0,6.0,98,0.00,,,0.33,meteohub,2013-03-28 03:07:00,
2013-03-28 05:13:00,44.8,44.2,-100.00,NE,45,3.0,6.0,98,0.00,,,0.33,meteohub,2013-03-28 03:13:00,
2013-03-28 05:18:00,44.8,44.2,-100.00,NE,45,2.0,6.0,98,0.00,,,0.33,meteohub,2013-03-28 03:18:00,
2013-03-28 05:24:00,44.8,44.2,-100.00,NE,45,2.0,6.0,98,0.00,,,0.33,meteohub,2013-03-28 03:24:00,
2013-03-28 05:29:00,44.8,44.2,-100.00,NNE,22,0.0,6.0,98,0.00,,,0.33,meteohub,2013-03-28 03:29:00,
2013-03-28 05:35:00,44.8,44.2,-100.00,NE,45,0.0,4.0,98,0.00,,,0.33,meteohub,2013-03-28 03:35:00,
2013-03-28 05:41:00,44.8,44.2,-100.00,NE,45,2.0,5.0,98,0.00,,,0.33,meteohub,2013-03-28 03:41:00,
2013-03-28 05:47:00,44.8,44.2,-100.00,NNE,22,0.0,5.0,98,0.00,,,0.33,meteohub,2013-03-28 03:47:00,
2013-03-28 05:52:00,44.8,44.2,-100.00,NE,45,3.0,5.0,98,0.00,,,0.33,meteohub,2013-03-28 03:52:00,
2013-03-28 05:57:00,44.8,44.2,-100.00,NNE,22,4.0,5.0,98,0.00,,,0.33,meteohub,2013-03-28 03:57:00,
2013-03-28 06:00:00,44.8,44.2,-100.00,NE,45,2.0,6.0,98,0.00,,,0.33,meteohub,2013-03-28 04:00:00,
2013-03-28 06:02:00,44.6,44.1,-100.00,NE,45,1.0,6.0,98,0.00,,,0.33,meteohub,2013-03-28 04:02:00,
2013-03-28 06:03:00,44.8,44.2,-100.00,NE,45,2.0,6.0,98,0.00,,,0.33,meteohub,2013-03-28 04:03:00,
2013-03-28 06:04:00,44.8,44.2,-100.00,NE,45,0.0,6.0,98,0.00,,,0.33,meteohub,2013-03-28 04:04:00,
2013-03-28 06:09:00,44.8,44.2,-100.00,NE,45,0.0,6.0,98,0.00,,,0.33,meteohub,2013-03-28 04:09:00,
2013-03-28 06:15:00,44.8,44.2,-100.00,NNE,22,2.0,5.0,98,0.00,,,0.33,meteohub,2013-03-28 04:15:00,
2013-03-28 06:21:00,44.8,44.2,-100.00,NE,45,0.0,5.0,98,0.00,,,0.33,meteohub,2013-03-28 04:21:00,
2013-03-28 06:29:00,44.8,44.2,-100.00,NE,45,2.0,5.0,98,0.00,,,0.33,meteohub,2013-03-28 04:29:00,
2013-03-28 06:35:00,44.8,44.2,-100.00,NE,45,0.0,8.0,98,0.04,,,0.37,meteohub,2013-03-28 04:35:00,
2013-03-28 06:40:00,44.8,44.2,-100.00,NE,45,2.0,8.0,98,0.04,,,0.37,meteohub,2013-03-28 04:40:00,
2013-03-28 06:46:00,44.8,44.2,-100.00,East,90,3.0,4.0,98,0.04,,,0.37,meteohub,2013-03-28 04:46:00,
2013-03-28 06:51:00,44.6,44.1,-100.00,NE,45,3.0,6.0,98,0.04,,,0.37,meteohub,2013-03-28 04:51:00,
2013-03-28 06:57:00,44.6,44.1,-100.00,NNE,22,1.0,6.0,98,0.04,,,0.37,meteohub,2013-03-28 04:57:00,
2013-03-28 07:02:00,44.6,44.1,-100.00,NE,45,2.0,6.0,98,0.04,,,0.37,meteohub,2013-03-28 05:02:00,
2013-03-28 07:07:00,44.6,44.1,-100.00,NE,45,2.0,6.0,98,0.04,,,0.37,meteohub,2013-03-28 05:07:00,
2013-03-28 07:13:00,44.6,44.1,-100.00,NE,45,0.0,6.0,98,0.04,,,0.37,meteohub,2013-03-28 05:13:00,
2013-03-28 07:19:00,44.6,44.1,-100.00,NE,45,2.0,6.0,98,0.04,,,0.37,meteohub,2013-03-28 05:19:00,
2013-03-28 07:24:00,44.6,44.1,-100.00,NE,45,2.0,4.0,98,0.04,,,0.37,meteohub,2013-03-28 05:24:00,
2013-03-28 07:29:00,44.6,44.1,-100.00,NE,45,0.0,6.0,98,0.04,,,0.37,meteohub,2013-03-28 05:29:00,
2013-03-28 07:34:00,44.6,44.1,-100.00,NE,45,2.0,6.0,98,0.04,,,0.37,meteohub,2013-03-28 05:34:00,
2013-03-28 07:40:00,44.6,44.1,-100.00,NE,45,3.0,6.0,98,0.00,,,0.37,meteohub,2013-03-28 05:40:00,
2013-03-28 07:46:00,44.6,44.1,-100.00,NE,45,3.0,6.0,98,0.00,,,0.37,meteohub,2013-03-28 05:46:00,
2013-03-28 07:51:00,44.6,44.1,-100.00,NE,45,2.0,6.0,98,0.00,,,0.37,meteohub,2013-03-28 05:51:00,
2013-03-28 07:57:00,44.6,44.1,-100.00,NNE,22,0.0,6.0,98,0.00,,,0.37,meteohub,2013-03-28 05:57:00,
2013-03-28 08:03:00,44.6,44.1,-100.00,NE,45,3.0,6.0,98,0.00,,,0.37,meteohub,2013-03-28 06:03:00,